Year,Month,Day,Hour,Minute,Value (Times are PST for temperature in C)
2018,08,14,00,00,16.90
2018,08,14,00,01,16.80
2018,08,14,00,02,16.80
2018,08,14,00,03,16.80
2018,08,14,00,04,16.80
2018,08,14,00,05,16.80
2018,08,14,00,06,16.70
2018,08,14,00,07,16.70
2018,08,14,00,08,16.70
2018,08,14,00,09,16.60
2018,08,14,00,10,16.60
2018,08,14,00,11,16.60
2018,08,14,00,12,16.50
2018,08,14,00,13,16.50
2018,08,14,00,14,16.50
2018,08,14,00,15,16.50
2018,08,14,00,16,16.40
2018,08,14,00,17,16.40
2018,08,14,00,18,16.40
2018,08,14,00,19,16.40
2018,08,14,00,20,16.30
2018,08,14,00,21,16.30
2018,08,14,00,22,16.30
2018,08,14,00,23,16.30
2018,08,14,00,24,16.30
2018,08,14,00,25,16.30
2018,08,14,00,26,16.30
2018,08,14,00,27,16.30
2018,08,14,00,28,16.30
2018,08,14,00,29,16.20
2018,08,14,00,30,16.20
2018,08,14,00,31,16.20
2018,08,14,00,32,16.20
2018,08,14,00,33,16.10
2018,08,14,00,34,16.10
2018,08,14,00,35,16.10
2018,08,14,00,36,16.10
2018,08,14,00,37,16.10
2018,08,14,00,38,16.10
2018,08,14,00,39,16.00
2018,08,14,00,40,16.00
2018,08,14,00,41,16.00
2018,08,14,00,42,16.00
2018,08,14,00,43,15.90
2018,08,14,00,44,15.90
2018,08,14,00,45,15.90
2018,08,14,00,46,15.90
2018,08,14,00,47,15.90
2018,08,14,00,48,15.80
2018,08,14,00,49,15.80
2018,08,14,00,50,15.80
2018,08,14,00,51,15.80
2018,08,14,00,52,15.90
2018,08,14,00,53,15.90
2018,08,14,00,54,15.90
2018,08,14,00,55,15.90
2018,08,14,00,56,16.00
2018,08,14,00,57,16.10
2018,08,14,00,58,16.20
2018,08,14,00,59,16.20
2018,08,14,01,00,16.30
2018,08,14,01,01,16.40
2018,08,14,01,02,16.50
2018,08,14,01,03,16.60
2018,08,14,01,04,16.70
2018,08,14,01,05,16.80
2018,08,14,01,06,16.90
2018,08,14,01,07,17.00
2018,08,14,01,08,17.00
2018,08,14,01,09,17.00
2018,08,14,01,10,17.00
2018,08,14,01,11,17.00
2018,08,14,01,12,17.00
2018,08,14,01,13,16.90
2018,08,14,01,14,16.90
2018,08,14,01,15,16.90
2018,08,14,01,16,16.90
2018,08,14,01,17,16.80
2018,08,14,01,18,16.80
2018,08,14,01,19,16.80
2018,08,14,01,20,16.80
2018,08,14,01,21,16.70
2018,08,14,01,22,16.70
2018,08,14,01,23,16.70
2018,08,14,01,24,16.60
2018,08,14,01,25,16.60
2018,08,14,01,26,16.60
2018,08,14,01,27,16.50
2018,08,14,01,28,16.50
2018,08,14,01,29,16.40
2018,08,14,01,30,16.40
2018,08,14,01,31,16.40
2018,08,14,01,32,16.30
2018,08,14,01,33,16.30
2018,08,14,01,34,16.30
2018,08,14,01,35,16.30
2018,08,14,01,36,16.20
2018,08,14,01,37,16.20
2018,08,14,01,38,16.20
2018,08,14,01,39,16.10
2018,08,14,01,40,16.10
2018,08,14,01,41,16.00
2018,08,14,01,42,15.90
2018,08,14,01,43,15.90
2018,08,14,01,44,15.90
2018,08,14,01,45,15.80
2018,08,14,01,46,15.80
2018,08,14,01,47,15.80
2018,08,14,01,48,15.80
2018,08,14,01,49,15.80
2018,08,14,01,50,15.70
2018,08,14,01,51,15.70
2018,08,14,01,52,15.70
2018,08,14,01,53,15.70
2018,08,14,01,54,15.70
2018,08,14,01,55,15.60
2018,08,14,01,56,15.60
2018,08,14,01,57,15.50
2018,08,14,01,58,15.50
2018,08,14,01,59,15.50
2018,08,14,02,00,15.40
2018,08,14,02,01,15.40
2018,08,14,02,02,15.40
2018,08,14,02,03,15.30
2018,08,14,02,04,15.30
2018,08,14,02,05,15.20
2018,08,14,02,06,15.20
2018,08,14,02,07,15.20
2018,08,14,02,08,15.20
2018,08,14,02,09,15.10
2018,08,14,02,10,15.10
2018,08,14,02,11,15.10
2018,08,14,02,12,15.10
2018,08,14,02,13,15.10
2018,08,14,02,14,15.10
2018,08,14,02,15,15.10
2018,08,14,02,16,15.10
2018,08,14,02,17,15.10
2018,08,14,02,18,15.10
2018,08,14,02,19,15.10
2018,08,14,02,20,15.00
2018,08,14,02,21,15.00
2018,08,14,02,22,15.00
2018,08,14,02,23,15.10
2018,08,14,02,24,15.10
2018,08,14,02,25,15.10
2018,08,14,02,26,15.10
2018,08,14,02,27,15.10
2018,08,14,02,28,15.10
2018,08,14,02,29,15.10
2018,08,14,02,30,15.10
2018,08,14,02,31,15.10
2018,08,14,02,32,15.10
2018,08,14,02,33,15.10
2018,08,14,02,34,15.20
2018,08,14,02,35,15.20
2018,08,14,02,36,15.20
2018,08,14,02,37,15.20
2018,08,14,02,38,15.20
2018,08,14,02,39,15.20
2018,08,14,02,40,15.10
2018,08,14,02,41,15.10
2018,08,14,02,42,15.10
2018,08,14,02,43,15.10
2018,08,14,02,44,15.10
2018,08,14,02,45,15.10
2018,08,14,02,46,15.00
2018,08,14,02,47,15.00
2018,08,14,02,48,15.00
2018,08,14,02,49,15.00
2018,08,14,02,50,15.00
2018,08,14,02,51,14.90
2018,08,14,02,52,14.90
2018,08,14,02,53,14.90
2018,08,14,02,54,14.90
2018,08,14,02,55,14.90
2018,08,14,02,56,14.80
2018,08,14,02,57,14.80
2018,08,14,02,58,14.80
2018,08,14,02,59,14.80
2018,08,14,03,00,14.80
2018,08,14,03,01,14.70
2018,08,14,03,02,14.70
2018,08,14,03,03,14.70
2018,08,14,03,04,14.70
2018,08,14,03,05,14.70
2018,08,14,03,06,14.70
2018,08,14,03,07,14.70
2018,08,14,03,08,14.70
2018,08,14,03,09,14.70
2018,08,14,03,10,14.70
2018,08,14,03,11,14.60
2018,08,14,03,12,14.60
2018,08,14,03,13,14.60
2018,08,14,03,14,14.60
2018,08,14,03,15,14.60
2018,08,14,03,16,14.60
2018,08,14,03,17,14.60
2018,08,14,03,18,14.60
2018,08,14,03,19,14.60
2018,08,14,03,20,14.60
2018,08,14,03,21,14.60
2018,08,14,03,22,14.60
2018,08,14,03,23,14.60
2018,08,14,03,24,14.60
2018,08,14,03,25,14.60
2018,08,14,03,26,14.60
2018,08,14,03,27,14.50
2018,08,14,03,28,14.50
2018,08,14,03,29,14.50
2018,08,14,03,30,14.50
2018,08,14,03,31,14.50
2018,08,14,03,32,14.40
2018,08,14,03,33,14.40
2018,08,14,03,34,14.40
2018,08,14,03,35,14.40
2018,08,14,03,36,14.40
2018,08,14,03,37,14.40
2018,08,14,03,38,14.40
2018,08,14,03,39,14.40
2018,08,14,03,40,14.40
2018,08,14,03,41,14.40
2018,08,14,03,42,14.30
2018,08,14,03,43,14.30
2018,08,14,03,44,14.30
2018,08,14,03,45,14.30
2018,08,14,03,46,14.30
2018,08,14,03,47,14.30
2018,08,14,03,48,14.30
2018,08,14,03,49,14.30
2018,08,14,03,50,14.30
2018,08,14,03,51,14.30
2018,08,14,03,52,14.30
2018,08,14,03,53,14.30
2018,08,14,03,54,14.30
2018,08,14,03,55,14.30
2018,08,14,03,56,14.30
2018,08,14,03,57,14.30
2018,08,14,03,58,14.30
2018,08,14,03,59,14.30
2018,08,14,04,00,14.30
2018,08,14,04,01,14.30
2018,08,14,04,02,14.30
2018,08,14,04,03,14.30
2018,08,14,04,04,14.30
2018,08,14,04,05,14.30
2018,08,14,04,06,14.30
2018,08,14,04,07,14.30
2018,08,14,04,08,14.30
2018,08,14,04,09,14.30
2018,08,14,04,10,14.30
2018,08,14,04,11,14.20
2018,08,14,04,12,14.20
2018,08,14,04,13,14.20
2018,08,14,04,14,14.20
2018,08,14,04,15,14.20
2018,08,14,04,16,14.20
2018,08,14,04,17,14.20
2018,08,14,04,18,14.20
2018,08,14,04,19,14.10
2018,08,14,04,20,14.10
2018,08,14,04,21,14.10
2018,08,14,04,22,14.10
2018,08,14,04,23,14.10
2018,08,14,04,24,14.10
2018,08,14,04,25,14.10
2018,08,14,04,26,14.10
2018,08,14,04,27,14.10
2018,08,14,04,28,14.10
2018,08,14,04,29,14.10
2018,08,14,04,30,14.10
2018,08,14,04,31,14.10
2018,08,14,04,32,14.10
2018,08,14,04,33,14.10
2018,08,14,04,34,14.10
2018,08,14,04,35,14.10
2018,08,14,04,36,14.00
2018,08,14,04,37,14.00
2018,08,14,04,38,14.00
2018,08,14,04,39,14.00
2018,08,14,04,40,14.00
2018,08,14,04,41,14.00
2018,08,14,04,42,14.00
2018,08,14,04,43,13.90
2018,08,14,04,44,13.90
2018,08,14,04,45,13.90
2018,08,14,04,46,13.90
2018,08,14,04,47,13.90
2018,08,14,04,48,13.90
2018,08,14,04,49,13.90
2018,08,14,04,50,13.90
2018,08,14,04,51,13.90
2018,08,14,04,52,13.90
2018,08,14,04,53,13.90
2018,08,14,04,54,13.80
2018,08,14,04,55,13.80
2018,08,14,04,56,13.80
2018,08,14,04,57,13.80
2018,08,14,04,58,13.80
2018,08,14,04,59,13.80
2018,08,14,05,00,13.80
2018,08,14,05,01,13.80
2018,08,14,05,02,13.80
2018,08,14,05,03,13.80
2018,08,14,05,04,13.80
2018,08,14,05,05,13.80
2018,08,14,05,06,13.80
2018,08,14,05,07,13.80
2018,08,14,05,08,13.70
2018,08,14,05,09,13.70
2018,08,14,05,10,13.80
2018,08,14,05,11,13.80
2018,08,14,05,12,13.80
2018,08,14,05,13,13.80
2018,08,14,05,14,13.80
2018,08,14,05,15,13.80
2018,08,14,05,16,13.80
2018,08,14,05,17,13.80
2018,08,14,05,18,13.80
2018,08,14,05,19,13.80
2018,08,14,05,20,13.80
2018,08,14,05,21,13.80
2018,08,14,05,22,13.80
2018,08,14,05,23,13.80
2018,08,14,05,24,13.80
2018,08,14,05,25,13.80
2018,08,14,05,26,13.70
2018,08,14,05,27,13.70
2018,08,14,05,28,13.70
2018,08,14,05,29,13.70
2018,08,14,05,30,13.70
2018,08,14,05,31,13.70
2018,08,14,05,32,13.70
2018,08,14,05,33,13.60
2018,08,14,05,34,13.60
2018,08,14,05,35,13.60
2018,08,14,05,36,13.60
2018,08,14,05,37,13.60
2018,08,14,05,38,13.60
2018,08,14,05,39,13.60
2018,08,14,05,40,13.60
2018,08,14,05,41,13.60
2018,08,14,05,42,13.60
2018,08,14,05,43,13.60
2018,08,14,05,44,13.60
2018,08,14,05,45,13.60
2018,08,14,05,46,13.50
2018,08,14,05,47,13.50
2018,08,14,05,48,13.50
2018,08,14,05,49,13.50
2018,08,14,05,50,13.40
2018,08,14,05,51,13.40
2018,08,14,05,52,13.40
2018,08,14,05,53,13.40
2018,08,14,05,54,13.40
2018,08,14,05,55,13.40
2018,08,14,05,56,13.40
2018,08,14,05,57,13.40
2018,08,14,05,58,13.40
2018,08,14,05,59,13.40
2018,08,14,06,00,13.40
2018,08,14,06,01,13.40
2018,08,14,06,02,13.40
2018,08,14,06,03,13.40
2018,08,14,06,04,13.40
2018,08,14,06,05,13.40
2018,08,14,06,06,13.30
2018,08,14,06,07,13.30
2018,08,14,06,08,13.30
2018,08,14,06,09,13.30
2018,08,14,06,10,13.30
2018,08,14,06,11,13.30
2018,08,14,06,12,13.30
2018,08,14,06,13,13.30
2018,08,14,06,14,13.20
2018,08,14,06,15,13.20
2018,08,14,06,16,13.20
2018,08,14,06,17,13.20
2018,08,14,06,18,13.20
2018,08,14,06,19,13.20
2018,08,14,06,20,13.20
2018,08,14,06,21,13.20
2018,08,14,06,22,13.20
2018,08,14,06,23,13.20
2018,08,14,06,24,13.20
2018,08,14,06,25,13.20
2018,08,14,06,26,13.20
2018,08,14,06,27,13.20
2018,08,14,06,28,13.20
2018,08,14,06,29,13.20
2018,08,14,06,30,13.20
2018,08,14,06,31,13.20
2018,08,14,06,32,13.20
2018,08,14,06,33,13.20
2018,08,14,06,34,13.20
2018,08,14,06,35,13.20
2018,08,14,06,36,13.20
2018,08,14,06,37,13.20
2018,08,14,06,38,13.20
2018,08,14,06,39,13.20
2018,08,14,06,40,13.20
2018,08,14,06,41,13.20
2018,08,14,06,42,13.20
2018,08,14,06,43,13.20
2018,08,14,06,44,13.20
2018,08,14,06,45,13.20
2018,08,14,06,46,13.20
2018,08,14,06,47,13.20
2018,08,14,06,48,13.20
2018,08,14,06,49,13.20
2018,08,14,06,50,13.20
2018,08,14,06,51,13.20
2018,08,14,06,52,13.20
2018,08,14,06,53,13.20
2018,08,14,06,54,13.20
2018,08,14,06,55,13.20
2018,08,14,06,56,13.20
2018,08,14,06,57,13.20
2018,08,14,06,58,13.20
2018,08,14,06,59,13.20
2018,08,14,07,00,13.20
2018,08,14,07,01,13.30
2018,08,14,07,02,13.20
2018,08,14,07,03,13.20
2018,08,14,07,04,13.30
2018,08,14,07,05,13.30
2018,08,14,07,06,13.30
2018,08,14,07,07,13.30
2018,08,14,07,08,13.30
2018,08,14,07,09,13.30
2018,08,14,07,10,13.30
2018,08,14,07,11,13.30
2018,08,14,07,12,13.30
2018,08,14,07,13,13.30
2018,08,14,07,14,13.30
2018,08,14,07,15,13.40
2018,08,14,07,16,13.40
2018,08,14,07,17,13.40
2018,08,14,07,18,13.40
2018,08,14,07,19,13.50
2018,08,14,07,20,13.50
2018,08,14,07,21,13.50
2018,08,14,07,22,13.50
2018,08,14,07,23,13.60
2018,08,14,07,24,13.60
2018,08,14,07,25,13.60
2018,08,14,07,26,13.60
2018,08,14,07,27,13.70
2018,08,14,07,28,13.70
2018,08,14,07,29,13.70
2018,08,14,07,30,13.80
2018,08,14,07,31,13.80
2018,08,14,07,32,13.90
2018,08,14,07,33,13.90
2018,08,14,07,34,14.00
2018,08,14,07,35,14.00
2018,08,14,07,36,14.10
2018,08,14,07,37,14.10
2018,08,14,07,38,14.10
2018,08,14,07,39,14.20
2018,08,14,07,40,14.20
2018,08,14,07,41,14.20
2018,08,14,07,42,14.30
2018,08,14,07,43,14.30
2018,08,14,07,44,14.30
2018,08,14,07,45,14.40
2018,08,14,07,46,14.40
2018,08,14,07,47,14.50
2018,08,14,07,48,14.50
2018,08,14,07,49,14.60
2018,08,14,07,50,14.60
2018,08,14,07,51,14.70
2018,08,14,07,52,14.70
2018,08,14,07,53,14.80
2018,08,14,07,54,14.80
2018,08,14,07,55,14.90
2018,08,14,07,56,14.90
2018,08,14,07,57,15.00
2018,08,14,07,58,15.00
2018,08,14,07,59,15.10
2018,08,14,08,00,15.10
2018,08,14,08,01,15.20
2018,08,14,08,02,15.20
2018,08,14,08,03,15.30
2018,08,14,08,04,15.30
2018,08,14,08,05,15.30
2018,08,14,08,06,15.40
2018,08,14,08,07,15.40
2018,08,14,08,08,15.50
2018,08,14,08,09,15.50
2018,08,14,08,10,15.60
2018,08,14,08,11,15.60
2018,08,14,08,12,15.60
2018,08,14,08,13,15.70
2018,08,14,08,14,15.70
2018,08,14,08,15,15.70
2018,08,14,08,16,15.80
2018,08,14,08,17,15.80
2018,08,14,08,18,15.80
2018,08,14,08,19,15.90
2018,08,14,08,20,15.90
2018,08,14,08,21,16.00
2018,08,14,08,22,16.10
2018,08,14,08,23,16.20
2018,08,14,08,24,16.20
2018,08,14,08,25,16.30
2018,08,14,08,26,16.30
2018,08,14,08,27,16.40
2018,08,14,08,28,16.50
2018,08,14,08,29,16.60
2018,08,14,08,30,16.60
2018,08,14,08,31,16.70
2018,08,14,08,32,16.80
2018,08,14,08,33,16.80
2018,08,14,08,34,16.90
2018,08,14,08,35,17.00
2018,08,14,08,36,17.00
2018,08,14,08,37,17.10
2018,08,14,08,38,17.20
2018,08,14,08,39,17.20
2018,08,14,08,40,17.30
2018,08,14,08,41,17.30
2018,08,14,08,42,17.40
2018,08,14,08,43,17.50
2018,08,14,08,44,17.50
2018,08,14,08,45,17.50
2018,08,14,08,46,17.60
2018,08,14,08,47,17.60
2018,08,14,08,48,17.60
2018,08,14,08,49,17.70
2018,08,14,08,50,17.80
2018,08,14,08,51,17.80
2018,08,14,08,52,17.90
2018,08,14,08,53,17.90
2018,08,14,08,54,18.00
2018,08,14,08,55,18.00
2018,08,14,08,56,18.10
2018,08,14,08,57,18.10
2018,08,14,08,58,18.20
2018,08,14,08,59,18.20
2018,08,14,09,00,18.30
2018,08,14,09,01,18.30
2018,08,14,09,02,18.40
2018,08,14,09,03,18.50
2018,08,14,09,04,18.50
2018,08,14,09,05,18.60
2018,08,14,09,06,18.60
2018,08,14,09,07,18.60
2018,08,14,09,08,18.70
2018,08,14,09,09,18.70
2018,08,14,09,10,18.80
2018,08,14,09,11,18.80
2018,08,14,09,12,18.90
2018,08,14,09,13,19.00
2018,08,14,09,14,19.00
2018,08,14,09,15,19.10
2018,08,14,09,16,19.10
2018,08,14,09,17,19.20
2018,08,14,09,18,19.30
2018,08,14,09,19,19.30
2018,08,14,09,20,19.40
2018,08,14,09,21,19.40
2018,08,14,09,22,19.40
2018,08,14,09,23,19.50
2018,08,14,09,24,19.50
2018,08,14,09,25,19.60
2018,08,14,09,26,19.60
2018,08,14,09,27,19.60
2018,08,14,09,28,19.60
2018,08,14,09,29,19.60
2018,08,14,09,30,19.60
2018,08,14,09,31,19.70
2018,08,14,09,32,19.70
2018,08,14,09,33,19.70
2018,08,14,09,34,19.70
2018,08,14,09,35,19.70
2018,08,14,09,36,19.60
2018,08,14,09,37,19.60
2018,08,14,09,38,19.50
2018,08,14,09,39,19.50
2018,08,14,09,40,19.40
2018,08,14,09,41,19.40
2018,08,14,09,42,19.40
2018,08,14,09,43,19.30
2018,08,14,09,44,19.30
2018,08,14,09,45,19.30
2018,08,14,09,46,19.30
2018,08,14,09,47,19.30
2018,08,14,09,48,19.30
2018,08,14,09,49,19.30
2018,08,14,09,50,19.30
2018,08,14,09,51,19.30
2018,08,14,09,52,19.20
2018,08,14,09,53,19.20
2018,08,14,09,54,19.20
2018,08,14,09,55,19.10
2018,08,14,09,56,19.10
2018,08,14,09,57,19.10
2018,08,14,09,58,19.10
2018,08,14,09,59,19.10
2018,08,14,10,00,19.10
2018,08,14,10,01,19.10
2018,08,14,10,02,19.10
2018,08,14,10,03,19.10
2018,08,14,10,04,19.20
2018,08,14,10,05,19.20
2018,08,14,10,06,19.20
2018,08,14,10,07,19.20
2018,08,14,10,08,19.20
2018,08,14,10,09,19.20
2018,08,14,10,10,19.20
2018,08,14,10,11,19.20
2018,08,14,10,12,19.20
2018,08,14,10,13,19.20
2018,08,14,10,14,19.20
2018,08,14,10,15,19.20
2018,08,14,10,16,19.20
2018,08,14,10,17,19.20
2018,08,14,10,18,19.10
2018,08,14,10,19,19.10
2018,08,14,10,20,19.10
2018,08,14,10,21,19.20
2018,08,14,10,22,19.20
2018,08,14,10,23,19.20
2018,08,14,10,24,19.20
2018,08,14,10,25,19.20
2018,08,14,10,26,19.20
2018,08,14,10,27,19.20
2018,08,14,10,28,19.30
2018,08,14,10,29,19.30
2018,08,14,10,30,19.30
2018,08,14,10,31,19.30
2018,08,14,10,32,19.30
2018,08,14,10,33,19.40
2018,08,14,10,34,19.40
2018,08,14,10,35,19.50
2018,08,14,10,36,19.60
2018,08,14,10,37,19.60
2018,08,14,10,38,19.70
2018,08,14,10,39,19.70
2018,08,14,10,40,19.80
2018,08,14,10,41,19.90
2018,08,14,10,42,19.90
2018,08,14,10,43,20.00
2018,08,14,10,44,20.10
2018,08,14,10,45,20.10
2018,08,14,10,46,20.20
2018,08,14,10,47,20.20
2018,08,14,10,48,20.30
2018,08,14,10,49,20.40
2018,08,14,10,50,20.40
2018,08,14,10,51,20.40
2018,08,14,10,52,20.40
2018,08,14,10,53,20.40
2018,08,14,10,54,20.50
2018,08,14,10,55,20.50
2018,08,14,10,56,20.60
2018,08,14,10,57,20.60
2018,08,14,10,58,20.70
2018,08,14,10,59,20.70
2018,08,14,11,00,20.80
2018,08,14,11,01,20.80
2018,08,14,11,02,20.90
2018,08,14,11,03,20.90
2018,08,14,11,04,20.90
2018,08,14,11,05,21.00
2018,08,14,11,06,21.10
2018,08,14,11,07,21.10
2018,08,14,11,08,21.10
2018,08,14,11,09,21.10
2018,08,14,11,10,21.10
2018,08,14,11,11,21.10
2018,08,14,11,12,21.00
2018,08,14,11,13,20.90
2018,08,14,11,14,20.90
2018,08,14,11,15,20.80
2018,08,14,11,16,20.70
2018,08,14,11,17,20.70
2018,08,14,11,18,20.60
2018,08,14,11,19,20.60
2018,08,14,11,20,20.60
2018,08,14,11,21,20.60
2018,08,14,11,22,20.60
2018,08,14,11,23,20.60
2018,08,14,11,24,20.60
2018,08,14,11,25,20.60
2018,08,14,11,26,20.60
2018,08,14,11,27,20.60
2018,08,14,11,28,20.60
2018,08,14,11,29,20.60
2018,08,14,11,30,20.60
2018,08,14,11,31,20.60
2018,08,14,11,32,20.70
2018,08,14,11,33,20.80
2018,08,14,11,34,20.80
2018,08,14,11,35,20.90
2018,08,14,11,36,21.00
2018,08,14,11,37,21.10
2018,08,14,11,38,21.10
2018,08,14,11,39,21.20
2018,08,14,11,40,21.30
2018,08,14,11,41,21.40
2018,08,14,11,42,21.60
2018,08,14,11,43,21.70
2018,08,14,11,44,21.80
2018,08,14,11,45,21.90
2018,08,14,11,46,22.00
2018,08,14,11,47,22.10
2018,08,14,11,48,22.20
2018,08,14,11,49,22.20
2018,08,14,11,50,22.20
2018,08,14,11,51,22.20
2018,08,14,11,52,22.20
2018,08,14,11,53,22.20
2018,08,14,11,54,22.30
2018,08,14,11,55,22.30
2018,08,14,11,56,22.40
2018,08,14,11,57,22.50
2018,08,14,11,58,22.60
2018,08,14,11,59,22.70
2018,08,14,12,00,22.80
2018,08,14,12,01,23.00
2018,08,14,12,02,23.10
2018,08,14,12,03,23.10
2018,08,14,12,04,23.20
2018,08,14,12,05,23.30
2018,08,14,12,06,23.40
2018,08,14,12,07,23.50
2018,08,14,12,08,23.60
2018,08,14,12,09,23.70
2018,08,14,12,10,23.80
2018,08,14,12,11,23.80
2018,08,14,12,12,23.80
2018,08,14,12,13,23.80
2018,08,14,12,14,23.80
2018,08,14,12,15,23.80
2018,08,14,12,16,23.90
2018,08,14,12,17,23.90
2018,08,14,12,18,23.90
2018,08,14,12,19,23.90
2018,08,14,12,20,23.80
2018,08,14,12,21,23.80
2018,08,14,12,22,23.80
2018,08,14,12,23,23.70
2018,08,14,12,24,23.70
2018,08,14,12,25,23.70
2018,08,14,12,26,23.70
2018,08,14,12,27,23.70
2018,08,14,12,28,23.70
2018,08,14,12,29,23.80
2018,08,14,12,30,23.80
2018,08,14,12,31,23.80
2018,08,14,12,32,23.90
2018,08,14,12,33,23.90
2018,08,14,12,34,23.90
2018,08,14,12,35,24.00
2018,08,14,12,36,24.10
2018,08,14,12,37,24.10
2018,08,14,12,38,24.10
2018,08,14,12,39,24.10
2018,08,14,12,40,24.10
2018,08,14,12,41,24.10
2018,08,14,12,42,24.10
2018,08,14,12,43,24.20
2018,08,14,12,44,24.20
2018,08,14,12,45,24.20
2018,08,14,12,46,24.20
2018,08,14,12,47,24.20
2018,08,14,12,48,24.30
2018,08,14,12,49,24.30
2018,08,14,12,50,24.30
2018,08,14,12,51,24.30
2018,08,14,12,52,24.30
2018,08,14,12,53,24.30
2018,08,14,12,54,24.30
2018,08,14,12,55,24.30
2018,08,14,12,56,24.40
2018,08,14,12,57,24.40
2018,08,14,12,58,24.40
2018,08,14,12,59,24.40
2018,08,14,13,00,24.40
2018,08,14,13,01,24.50
2018,08,14,13,02,24.60
2018,08,14,13,03,24.60
2018,08,14,13,04,24.70
2018,08,14,13,05,24.70
2018,08,14,13,06,24.70
2018,08,14,13,07,24.60
2018,08,14,13,08,24.60
2018,08,14,13,09,24.60
2018,08,14,13,10,24.60
2018,08,14,13,11,24.70
2018,08,14,13,12,24.70
2018,08,14,13,13,24.70
2018,08,14,13,14,24.80
2018,08,14,13,15,24.80
2018,08,14,13,16,24.80
2018,08,14,13,17,24.70
2018,08,14,13,18,24.60
2018,08,14,13,19,24.60
2018,08,14,13,20,24.50
2018,08,14,13,21,24.40
2018,08,14,13,22,24.40
2018,08,14,13,23,24.40
2018,08,14,13,24,24.40
2018,08,14,13,25,24.50
2018,08,14,13,26,24.50
2018,08,14,13,27,24.60
2018,08,14,13,28,24.60
2018,08,14,13,29,24.60
2018,08,14,13,30,24.60
2018,08,14,13,31,24.60
2018,08,14,13,32,24.70
2018,08,14,13,33,24.70
2018,08,14,13,34,24.70
2018,08,14,13,35,24.70
2018,08,14,13,36,24.70
2018,08,14,13,37,24.70
2018,08,14,13,38,24.70
2018,08,14,13,39,24.60
2018,08,14,13,40,24.60
2018,08,14,13,41,24.70
2018,08,14,13,42,24.80
2018,08,14,13,43,24.90
2018,08,14,13,44,24.90
2018,08,14,13,45,25.00
2018,08,14,13,46,25.10
2018,08,14,13,47,25.20
2018,08,14,13,48,25.30
2018,08,14,13,49,25.40
2018,08,14,13,50,25.50
2018,08,14,13,51,25.60
2018,08,14,13,52,25.70
2018,08,14,13,53,25.80
2018,08,14,13,54,25.90
2018,08,14,13,55,25.90
2018,08,14,13,56,26.00
2018,08,14,13,57,26.10
2018,08,14,13,58,26.10
2018,08,14,13,59,26.10
2018,08,14,14,00,26.10
2018,08,14,14,01,26.00
2018,08,14,14,02,26.00
2018,08,14,14,03,25.90
2018,08,14,14,04,25.90
2018,08,14,14,05,25.80
2018,08,14,14,06,25.70
2018,08,14,14,07,25.70
2018,08,14,14,08,25.70
2018,08,14,14,09,25.70
2018,08,14,14,10,25.60
2018,08,14,14,11,25.50
2018,08,14,14,12,25.50
2018,08,14,14,13,25.40
2018,08,14,14,14,25.40
2018,08,14,14,15,25.40
2018,08,14,14,16,25.40
2018,08,14,14,17,25.40
2018,08,14,14,18,25.40
2018,08,14,14,19,25.40
2018,08,14,14,20,25.50
2018,08,14,14,21,25.50
2018,08,14,14,22,25.60
2018,08,14,14,23,25.60
2018,08,14,14,24,25.70
2018,08,14,14,25,25.70
2018,08,14,14,26,25.80
2018,08,14,14,27,25.80
2018,08,14,14,28,25.80
2018,08,14,14,29,25.90
2018,08,14,14,30,25.90
2018,08,14,14,31,25.90
2018,08,14,14,32,26.00
2018,08,14,14,33,26.00
2018,08,14,14,34,26.10
2018,08,14,14,35,26.10
2018,08,14,14,36,26.20
2018,08,14,14,37,26.30
2018,08,14,14,38,26.30
2018,08,14,14,39,26.30
2018,08,14,14,40,26.30
2018,08,14,14,41,26.30
2018,08,14,14,42,26.30
2018,08,14,14,43,26.20
2018,08,14,14,44,26.20
2018,08,14,14,45,26.10
2018,08,14,14,46,26.00
2018,08,14,14,47,26.00
2018,08,14,14,48,25.90
2018,08,14,14,49,25.80
2018,08,14,14,50,25.80
2018,08,14,14,51,25.70
2018,08,14,14,52,25.70
2018,08,14,14,53,25.60
2018,08,14,14,54,25.60
2018,08,14,14,55,25.60
2018,08,14,14,56,25.60
2018,08,14,14,57,25.50
2018,08,14,14,58,25.50
2018,08,14,14,59,25.40
2018,08,14,15,00,25.30
2018,08,14,15,01,25.30
2018,08,14,15,02,25.30
2018,08,14,15,03,25.30
2018,08,14,15,04,25.30
2018,08,14,15,05,25.30
2018,08,14,15,06,25.40
2018,08,14,15,07,25.50
2018,08,14,15,08,25.50
2018,08,14,15,09,25.50
2018,08,14,15,10,25.60
2018,08,14,15,11,25.60
2018,08,14,15,12,25.70
2018,08,14,15,13,25.80
2018,08,14,15,14,25.80
2018,08,14,15,15,25.90
2018,08,14,15,16,25.90
2018,08,14,15,17,25.90
2018,08,14,15,18,25.90
2018,08,14,15,19,26.00
2018,08,14,15,20,26.10
2018,08,14,15,21,26.20
2018,08,14,15,22,26.30
2018,08,14,15,23,26.40
2018,08,14,15,24,26.60
2018,08,14,15,25,26.70
2018,08,14,15,26,26.90
2018,08,14,15,27,27.00
2018,08,14,15,28,27.10
2018,08,14,15,29,27.20
2018,08,14,15,30,27.20
2018,08,14,15,31,27.20
2018,08,14,15,32,27.20
2018,08,14,15,33,27.20
2018,08,14,15,34,27.30
2018,08,14,15,35,27.30
2018,08,14,15,36,27.40
2018,08,14,15,37,27.40
2018,08,14,15,38,27.40
2018,08,14,15,39,27.40
2018,08,14,15,40,27.40
2018,08,14,15,41,27.40
2018,08,14,15,42,27.50
2018,08,14,15,43,27.50
2018,08,14,15,44,27.60
2018,08,14,15,45,27.70
2018,08,14,15,46,27.70
2018,08,14,15,47,27.80
2018,08,14,15,48,27.80
2018,08,14,15,49,27.70
2018,08,14,15,50,27.70
2018,08,14,15,51,27.70
2018,08,14,15,52,27.80
2018,08,14,15,53,27.80
2018,08,14,15,54,27.80
2018,08,14,15,55,27.90
2018,08,14,15,56,28.00
2018,08,14,15,57,28.00
2018,08,14,15,58,28.00
2018,08,14,15,59,28.00
2018,08,14,16,00,28.00
2018,08,14,16,01,28.00
2018,08,14,16,02,27.90
2018,08,14,16,03,28.00
2018,08,14,16,04,27.90
2018,08,14,16,05,27.90
2018,08,14,16,06,27.90
2018,08,14,16,07,27.90
2018,08,14,16,08,27.90
2018,08,14,16,09,27.90
2018,08,14,16,10,28.00
2018,08,14,16,11,28.00
2018,08,14,16,12,28.00
2018,08,14,16,13,27.90
2018,08,14,16,14,27.90
2018,08,14,16,15,27.80
2018,08,14,16,16,27.60
2018,08,14,16,17,27.50
2018,08,14,16,18,27.50
2018,08,14,16,19,27.40
2018,08,14,16,20,27.40
2018,08,14,16,21,27.30
2018,08,14,16,22,27.30
2018,08,14,16,23,27.30
2018,08,14,16,24,27.30
2018,08,14,16,25,27.30
2018,08,14,16,26,27.40
2018,08,14,16,27,27.40
2018,08,14,16,28,27.30
2018,08,14,16,29,27.40
2018,08,14,16,30,27.40
2018,08,14,16,31,27.50
2018,08,14,16,32,27.60
2018,08,14,16,33,27.60
2018,08,14,16,34,27.70
2018,08,14,16,35,27.70
2018,08,14,16,36,27.70
2018,08,14,16,37,27.80
2018,08,14,16,38,27.80
2018,08,14,16,39,27.80
2018,08,14,16,40,27.80
2018,08,14,16,41,27.80
2018,08,14,16,42,27.80
2018,08,14,16,43,27.80
2018,08,14,16,44,27.80
2018,08,14,16,45,27.80
2018,08,14,16,46,27.70
2018,08,14,16,47,27.50
2018,08,14,16,48,27.30
2018,08,14,16,49,27.10
2018,08,14,16,50,26.90
2018,08,14,16,51,26.80
2018,08,14,16,52,26.70
2018,08,14,16,53,26.50
2018,08,14,16,54,26.50
2018,08,14,16,55,26.40
2018,08,14,16,56,26.40
2018,08,14,16,57,26.40
2018,08,14,16,58,26.40
2018,08,14,16,59,26.30
2018,08,14,17,00,26.20
2018,08,14,17,01,26.00
2018,08,14,17,02,25.90
2018,08,14,17,03,25.80
2018,08,14,17,04,25.80
2018,08,14,17,05,25.70
2018,08,14,17,06,25.70
2018,08,14,17,07,25.70
2018,08,14,17,08,25.70
2018,08,14,17,09,25.70
2018,08,14,17,10,25.80
2018,08,14,17,11,25.80
2018,08,14,17,12,25.80
2018,08,14,17,13,25.70
2018,08,14,17,14,25.70
2018,08,14,17,15,25.70
2018,08,14,17,16,25.70
2018,08,14,17,17,25.70
2018,08,14,17,18,25.70
2018,08,14,17,19,25.70